Regional Weather Roundup
Issued by NWS

Home | Current Version | Previous Version | Text Only | Print | Product List | Glossary On
Versions: 1 2 3 4 5 6 7 8 9 10 11 12 13 14 15 16 17 18 19 20 21 22 23 24 25 26 27 28 29 30 31 32 33 34 35 36 37 38 39 40 41 42 43 44 45 46 47 48 49 50
000
ASUS45 KABQ 282210
RWRNM
WEATHER ROUNDUP FOR NEW MEXICO
NATIONAL WEATHER SERVICE ALBUQUERQUE NM
300 PM MST WED JAN 28 2015

NOTE: "FAIR" MEANS FEW OR NO CLOUDS BELOW 12,000 FEET AGL WITH NO
       SIGNIFICANT WEATHER OR OBSTRUCTIONS TO VISION.

      THIS PRODUCT IS RELEASED AS TWO VERSIONS.  ONE VERSION NEAR
      THE TOP OF THE HOUR CONTAINING PRELIMINARY DATA FROM ALBUQUERQUE
      AND OTHER STATIONS.  A FINAL VERSION WITH ADDITIONAL DATA IS
      ISSUED ABOUT 10 MINUTES AFTER THE HOUR.

NMZ501-503-504-510>518-282300-
NORTHWEST PLATEAU/NORTHCENTRAL MOUNTAINS

CITY           SKY/WX    TMP DP  RH WIND       PRES   REMARKS
FARMINGTON     SUNNY     54  30  40 W13       30.20F
LOS ALAMOS     MOSUNNY   51  28  41 NE3       30.20S
SANTA FE       SUNNY     57  26  30 N12       30.15F
TAOS           SUNNY     50  27  40 S13       30.19F
ANGEL FIRE     FAIR      42  26  52 W16G24    30.19F

$$
NMZ402-403-502-505>509-282300-
WESTCENTRAL MOUNTAINS/SOUTHWEST MOUNTAINS

CITY           SKY/WX    TMP DP  RH WIND       PRES   REMARKS
GALLUP         SUNNY     55  29  36 MISG      30.22F
GRANTS         MOSUNNY   58  28  31 N9G17     30.22S
SILVER CITY    MOSUNNY   66  30  26 NW8       30.16F

$$
NMZ407-409-411-412-282300-
SOUTHERN DESERTS

CITY           SKY/WX    TMP DP  RH WIND       PRES   REMARKS
LORDSBURG      FAIR      68  32  26 W9        30.12S
DEMING         MOSUNNY   69  35  28 VRB3      30.11F
LAS CRUCES     MOSUNNY   69  34  26 W5        30.13F
HOLLOMAN AFB   MOSUNNY   69  36  29 NW2       30.11F
ALAMOGORDO     MOSUNNY   68  32  26 N5        30.13S
T OR C         SUNNY     67  34  29 S3        30.12F

$$
NMZ519>523-282300-
CENTRAL VALLEYS/CENTRAL HIGHLANDS

CITY           SKY/WX    TMP DP  RH WIND       PRES   REMARKS
ALBUQUERQUE    PTSUNNY   63  27  25 NW10      30.16F
DOUBLE EAGLE   MOSUNNY   59  27  29 NW12      30.19S
MORIARTY ARPT  FAIR      60  25  25 NW10G21   30.17R
CLINES CORNERS SUNNY     55  25  31 NW25G32   30.14R
BELEN          FAIR      64  31  29 NW9       30.15F
SOCORRO          N/A     67  33  27 SE7       30.13F

$$
NMZ524>526-539-540-282300-
SOUTHCENTRAL MOUNTAINS

CITY           SKY/WX    TMP DP  RH WIND       PRES   REMARKS
RUIDOSO        MOSUNNY   57  25  28 NW8       30.22S

$$
NMZ527>531-282300-
NORTHEAST HIGHLANDS/NORTHEAST PLAINS

CITY           SKY/WX    TMP DP  RH WIND       PRES   REMARKS
LAS VEGAS      MOSUNNY   64   2   8 NW16      30.09F
RATON          SUNNY     61  24  24 NE14      30.06R
CLAYTON        MOSUNNY   66  25  21 SE7       30.04R

$$
NMZ532>537-282300-
EASTCENTRAL PLAINS

CITY           SKY/WX    TMP DP  RH WIND       PRES   REMARKS
TUCUMCARI      MOSUNNY   71  29  21 S8        30.00F
CANNON AFB     SUNNY     69  33  26 W22G28    30.03F
CLOVIS AIRPORT SUNNY     70  34  26 W14G20    30.04S

$$
NMZ028-029-538-282300-
SOUTHEAST PLAINS

CITY           SKY/WX    TMP DP  RH WIND       PRES   REMARKS
ROSWELL        SUNNY     73  39  29 S9        30.07S
ARTESIA        SUNNY     73  39  29 NE5       30.07F
CARLSBAD       SUNNY     77  36  22 W22       30.05F
HOBBS          SUNNY     73  36  25 W13G21    30.09S


$$



USA.gov is the U.S. government's official web portal to all federal, state and local government web resources and services.